Walla Walla, WA
on Wednesday, November 21, 2012

Wednesday
Previous Day Next Day
Daily Summary
 ActualAverage (KPDT)Record (KPDT)
Temperature
Mean Temperature °F 39°F  
Max Temperature 52°F 47°F 74°F (1974)
Min Temperature 39°F 32°F -4°F (1900)
Degree Days
Heating Degree Days 20 26  
Month to date heating degree days 464  
Since 1 July heating degree days 1006  
Cooling Degree Days 0 0  
Month to date cooling degree days 0  
Year to date cooling degree days 636  
Moisture
Dew Point 36°F   
Average Humidity 68    
Maximum Humidity 89    
Minimum Humidity 44    
Precipitation
Precipitation 0.06 in 0.06 in 0.80 in (1921)
Month to date precipitation 1.06  
Year to date precipitation 10.73  
Snow
Snow 0.00 in 0.00 in 1.20 in (1946)
Month to date snowfall 0.6  
Year to date snowfall 8.4  
Since 1 July snowfall 0.7  
Snow Depth in   
Wind
Wind Speed 11 mph   
Max Wind Speed 23 mph   
Max Gust Speed 34 mph   
Visibility 10 miles   
Events Rain   

Key: T is trace of precipitation, MM is missing value
Source: NWS Daily Summary
Time(PST)TemperatureDew PointHumidity Pressure Visibility Wind DirectionWind SpeedGust SpeedPrecipitationEvents Conditions
12:53 AM 46.9°F 43.0°F 86% 29.67 in 10.0 miles SE 8.1 mph - N/A   Mostly Cloudy
1:53 AM 46.0°F 43.0°F 89% 29.66 in 10.0 miles Calm Calm - N/A   Mostly Cloudy
2:53 AM 48.0°F 42.1°F 80% 29.62 in 10.0 miles SSW 5.8 mph - N/A   Partly Cloudy
3:53 AM 48.9°F 41.0°F 74% 29.62 in 10.0 miles South 8.1 mph - N/A   Mostly Cloudy
4:53 AM 46.9°F 42.1°F 83% 29.65 in 10.0 miles West 6.9 mph - 0.01 in Rain Light Rain
5:53 AM 44.1°F 41.0°F 89% 29.75 in 10.0 miles SSW 9.2 mph - 0.05 in   Overcast
6:53 AM 46.0°F 39.0°F 76% 29.81 in 10.0 miles SSW 18.4 mph 28.8 mph N/A   Mostly Cloudy
7:53 AM 46.9°F 37.9°F 71% 29.83 in 10.0 miles South 6.9 mph - N/A   Mostly Cloudy
8:53 AM 46.9°F 37.9°F 71% 29.86 in 10.0 miles SSW 15.0 mph - N/A   Clear
9:53 AM 50.0°F 35.1°F 57% 29.92 in 10.0 miles SW 18.4 mph 31.1 mph N/A   Clear
10:53 AM 50.0°F 34.0°F 54% 29.94 in 10.0 miles SW 23.0 mph 34.5 mph N/A   Clear
11:53 AM 51.1°F 33.1°F 50% 29.95 in 10.0 miles SW 16.1 mph 27.6 mph N/A   Clear
12:53 PM 52.0°F 33.1°F 49% 29.96 in 10.0 miles SW 18.4 mph - N/A   Clear
1:53 PM 50.0°F 30.9°F 48% 29.98 in 10.0 miles WSW 19.6 mph 26.5 mph N/A   Clear
2:53 PM 51.1°F 30.0°F 44% 30.00 in 10.0 miles SW 21.9 mph - N/A   Scattered Clouds
3:53 PM 50.0°F 32.0°F 50% 30.04 in 10.0 miles WSW 17.3 mph 25.3 mph N/A   Mostly Cloudy
4:53 PM 46.9°F 34.0°F 61% 30.08 in 10.0 miles SW 13.8 mph - N/A   Overcast
5:53 PM 45.0°F 34.0°F 65% 30.12 in 10.0 miles WSW 17.3 mph 23.0 mph N/A   Scattered Clouds
6:53 PM 43.0°F 35.1°F 74% 30.16 in 10.0 miles SSW 11.5 mph - N/A   Clear
7:53 PM 43.0°F 33.1°F 68% 30.19 in 10.0 miles South 11.5 mph - N/A   Clear
8:53 PM 41.0°F 32.0°F 70% 30.22 in 10.0 miles South 17.3 mph - N/A   Clear
9:53 PM 41.0°F 33.1°F 73% 30.25 in 10.0 miles South 12.7 mph - N/A   Clear
10:53 PM 39.9°F 32.0°F 73% 30.29 in 10.0 miles South 12.7 mph - N/A   Clear
11:53 PM 39.9°F 30.0°F 68% 30.33 in 10.0 miles South 10.4 mph - N/A   Clear
Moon Phase
Nov. 21 Nov. 28 Dec. 06 Dec. 13 Dec. 20
Sunrise:07:02 AM (PST) Moon Rise:12:52 PM (PST)11/21
Sunset:04:15 PM (PST) Moon Set:12:06 AM (PST)11/21

Copyright © 2014 The Weather Underground, Inc.